Starlink 11330

operational
NORAD ID: 62011 Int'l Des: 2024-213 Owner: SPXS Country: US Constellation: starlink
LEOCIRCULAR

About Starlink 11330

Description loading...

Live Position

Loading 3D Globe...

Upcoming Passes

Altitude History

Altitude vs Time

uPlot chart will show altitude changes over time

Two-Line Element Set

1 62011U 24213D 25306.29713875 .00223241 00000-0 17911-2 0 9995
2 62011 53.1564 309.4897 0001900 110.7361 249.3860 15.69807985 54903
Epoch: Nov 2, 2025 • Age: 13 hours

Current Status

Altitude 363.8 km
Velocity 7.70 km/s
Sub-Earth Point 52.00°N, 75.32°E
Launch Date Nov 18, 2024
Age 0.9 years
Type internet

Technical Details

Classification Payload
Mass 960.00 kg
Dry Mass 910.00 kg
Total Mass 960.00 kg
Length 0.30 m
Diameter 4.10 m
Span 29.00 m
Shape Box + pan
Manufacturer SPXS
Bus Type Starlink V2MD
Phase Status In Orbit
Owner/State SPXS/US

Large Constellations

Loading constellations...